User: anonymous   Login
Location: Skalnate Pleso
(49.1889°N, 20.2450°E)
Time: 08:49:24
(UTC+02:00)
Language:

Iridium 45 - Orbit

View from above orbital plane
View from above orbital plane
View from above satellite
View from above satellite

Ground track
Ground track

The orbit data is extracted from the following two-line orbital elements,

1 25104U 97082A   17205.31833564 +.00000155 +00000-0 +48345-4 0  9995
2 25104 086.3954 271.6896 0002561 116.0415 244.1045 14.34218872025692
Epoch (UTC): 24 July 2017 07:38:24
Eccentricity: 0.0002561
inclination: 86.3954°
perigee height: 776 km
apogee height: 779 km
right ascension of ascending node: 271.6896°
argument of perigee: 116.0415°
revolutions per day: 14.34218872
mean anomaly at epoch: 244.1045°
orbit number at epoch: 2569

The dashed part of the orbit path shows where the satellite is in the earth's shadow,  

DLR